Lexington Weather

Lexington, Massachusetts, USA

33°F
12/8/2019 4:05pm 
  • Lexington Conditions: Mostly cloudy
  • Temperature: 32.5°F / 0.3°CColder 1.1°F than last hour.
  • Dew Point: 17.2°FIncreased 1.6°Fsince last hour.
  • Relative Humidity: 53%Increased 6.0% since last hour.
  • Wind: Wind from WSW WSW 2 mph, 10-min avg: 2 mph, gust: 7 mph
  • Barometer: 30.40 in Steady
  • Visibility: 10 miles
  • Snow Today: 0.0 in
  •   

Regional Weather Roundup
for Boston / Norton, MA

        
000
ASUS41 KBOX 060810
RWRBOX

REGIONAL WEATHER ROUNDUP
NATIONAL WEATHER SERVICE BOSTON/NORTON MA
300 AM EST FRI DEC 06 2019

NOTE:  "FAIR" INDICATES FEW OR NO CLOUDS BELOW 12,000 FEET WITH NO 
SIGNIFICANT WEATHER AND/OR OBSTRUCTIONS TO VISIBILITY.

MAZALL-060900-
EASTERN MASSACHUSETTS
  
CITY           SKY/WX    TMP DP  RH WIND       PRES   REMARKS
BOSTON         FAIR      32  15  49 W13       30.04R WCI  22          
BEVERLY        FAIR      27  14  58 W9        30.01R WCI  18          
LAWRENCE       FAIR      26  14  60 SW7       30.03R WCI  18          
BEDFORD        FAIR      27  13  55 SW3       30.02R                  
BLUE HILL        N/A     24  15  68 W13       29.99R WCI  12          
NORWOOD        FAIR      28  15  58 W5        30.04R WCI  23          
MARSHFIELD     FAIR      28  18  64 CALM      30.04R                  
PLYMOUTH       FAIR      27  17  66 W8        30.04R WCI  19          
TAUNTON        FAIR      29  15  56 W3        30.05R                  
NEW BEDFORD    FAIR      29  16  58 W12       30.05R WCI  19          
$$

MAZALL-060900-
CAPE COD AND THE ISLANDS
  
CITY           SKY/WX    TMP DP  RH WIND       PRES   REMARKS
FALMOUTH       CLEAR     28  16  59 NW13G18   30.04R WCI  18          
HYANNIS        FAIR      30  16  56 VRB3      30.03R                  
CHATHAM        FAIR      32  17  54 NW10G20   30.03R WCI  24          
PROVINCETOWN   MOCLDY    32  21  64 W20G26    30.03R WCI  20          
NANTUCKET      FAIR      33  19  56 W17G24    30.04R WCI  22          
MARTHAS VNYRD  FAIR      32  17  54 W7G18     30.05R WCI  26          
$$
 
MAZALL-060900-
CENTRAL AND WESTERN MASSACHUSETTS
  
CITY           SKY/WX    TMP DP  RH WIND       PRES   REMARKS
WORCESTER      FAIR      22  13  68 W9        29.98R WCI  12          
FITCHBURG      FAIR      16  10  77 CALM      30.02R                  
ORANGE         FAIR      22  12  65 SW6       30.03R WCI  14          
SPRINGFIELD    MOCLDY    29  17  60 W7        30.06R WCI  21          
WESTFIELD      CLOUDY    30  17  58 W3        30.07R                  
NORTH ADAMS    CLOUDY    27  15  61 W9        30.04R WCI  18          
PITTSFIELD     CLOUDY    26  17  68 W5        30.00R WCI  20          
$$
 
RIZALL-060900-
RHODE ISLAND
  
CITY           SKY/WX    TMP DP  RH WIND       PRES   REMARKS
PROVIDENCE     FAIR      30  17  58 W12       30.07R WCI  20          
NEWPORT        FAIR      32  17  54 W12G21    30.06R WCI  23          
BLOCK ISLAND   FAIR      33  19  56 NW13G24   30.09R WCI  24          
SMITHFIELD     FAIR      26  16  65 W8        30.03R WCI  18          
WESTERLY       FAIR      33  17  51 W5        30.10R WCI  29          
$$
 
CTZALL-060900-
CONNECTICUT
  
CITY           SKY/WX    TMP DP  RH WIND       PRES   REMARKS
BRADLEY INTL   MOCLDY    30  18  60 SW6       30.08R WCI  24          
HARTFORD       FAIR      28  18  66 CALM      30.09R                  
BRIDGEPORT     FAIR      35  19  52 W9        30.12R WCI  28          
DANBURY        FAIR      31  17  56 W10       30.10R WCI  22          
GROTON         FAIR      31  20  63 W6        30.09R WCI  25          
NEW HAVEN      FAIR      37  23  56 W6        30.10R                  
CHESTER        FAIR      28  21  74 W3        30.07S                  
MERIDEN        FAIR      22  20  92 S3        30.10R                  
WILLIMANTIC    FAIR      29  17  61 CALM      30.08R                  
OXFORD         FAIR      28  20  71 SW5       30.07R WCI  23          
$$

MEZ002-015-021-024-NHZ003-005-008-011-012-014-VTZ005-008-060900-
NORTHERN NEW ENGLAND
  
CITY           SKY/WX    TMP DP  RH WIND       PRES   REMARKS
PORTLAND ME    FAIR      28  11  48 W6        29.95R WCI  22          
BANGOR ME      FAIR      26  17  68 W7        29.86R WCI  18          
CONCORD NH     CLOUDY    27  14  58 W6        29.99R WCI  20          
MANCHESTER NH  FAIR      27  14  58 W5        29.99R WCI  22          
NASHUA NH      FAIR      20  16  84 W3        30.02R                  
PORTSMOUTH NH  PTCLDY    28  13  54 W10       29.96R WCI  18          
JAFFREY NH     FAIR      23  12  62 W6        29.97R WCI  16          
KEENE NH       FAIR      19  15  84 S3        30.01R                  
BURLINGTON VT  CLOUDY    27  15  61 W13       30.02R WCI  16          
MT. WASHINGTON BLWGSNOW   1   1 100 W58         N/A  VSB 1/16WCI -31  
$$

NYZ052-076-060900-
EASTERN NEW YORK
  
CITY           SKY/WX    TMP DP  RH WIND       PRES   REMARKS
ALBANY         CLOUDY    31  18  58 CALM      30.09R                  
NEW YORK CITY  MOCLDY    36  20  52 NW9       30.14R WCI  29          
$$
 
ANZALL-060900-
MARINE OBSERVATIONS
  
STATION/POSITION TIME  TEMP    WIND        PRES    VSBY  WAVE
                       AIR SEA DIR/SP/G                  HT/PER
                 (UTC) (F)     (DEG/KT/KT) (MB)    (MI)  (FT/S)
BOSTON BUOY      0750   33 48  280/ 21/ 27 1015.9R         3/ 4
BUZZARDS BAY     0700   33     310/ 23/ 24 1017.8R
NANTUCKET SOUND  0740   34 43              1017.1R
MASS BAY-STELLWA 0704   32 46  320/ 21/ 25 1013.7R  1 7/8  3/ 4
ISLE OF SHOALS   0700   30     280/ 19/ 22 1013.9R
S OF BLOCK IS    0730      50                N/A           7/ 7
$$

......................KEY.........................
  SKY/WX - SKY CONDITION/PRESENT WEATHER
  TMP    - TEMPERATURE IN FAHRENHEIT
  DWPT   - DEWPOINT IN FAHRENHEIT
  RH     - RELATIVE HUMIDITY IN PERCENT
  WIND   - DIRECTION AND SPEED IN MPH
  PRES   - MEAN SEA LEVEL PRESSURE IN INCHES OF HG
  WCI    - WIND CHILL INDEX
  VSB    - VISIBILITY IN MILES
  HX     - HEAT INDEX
  TC     - TEMPERATURE IN CELSIUS
  VRB    - VARIABLE WIND DIRECTION
  N/A    - NOT AVAILABLE
  
      

Other recent Regional Weather Roundups

Sun Dec 8, 4:01pm

Sun Dec 8, 3:10pm

Sun Dec 8, 3:01pm

Sun Dec 8, 2:10pm

Sun Dec 8, 2:01pm

Sun Dec 8, 1:10pm

Sun Dec 8, 1:00pm

Sun Dec 8, 12:10pm

Sun Dec 8, 12:01pm

Sun Dec 8, 11:10am

Sun Dec 8, 11:00am

Sun Dec 8, 10:10am

Sun Dec 8, 10:01am

Sun Dec 8, 9:10am

Sun Dec 8, 9:00am

Sun Dec 8, 8:10am

Sun Dec 8, 8:00am

Sun Dec 8, 7:10am

Sun Dec 8, 7:00am

Sun Dec 8, 6:10am

Sun Dec 8, 6:00am

Sun Dec 8, 5:10am

Sun Dec 8, 5:00am

Sun Dec 8, 4:10am

Sun Dec 8, 4:00am

Sun Dec 8, 3:10am

Sun Dec 8, 3:00am

Sun Dec 8, 2:10am

Sun Dec 8, 2:00am

Sun Dec 8, 1:10am

Sun Dec 8, 1:00am

Sun Dec 8, 12:10am

Sun Dec 8, 12:01am

Sat Dec 7, 11:10pm

Sat Dec 7, 11:00pm

Sat Dec 7, 10:10pm

Sat Dec 7, 10:00pm

Sat Dec 7, 9:10pm

Sat Dec 7, 9:00pm

Sat Dec 7, 8:10pm

Sat Dec 7, 8:00pm

Sat Dec 7, 7:10pm

Sat Dec 7, 7:00pm

Sat Dec 7, 6:10pm

Sat Dec 7, 6:00pm

Sat Dec 7, 5:10pm

Sat Dec 7, 5:00pm

Sat Dec 7, 4:10pm

Sat Dec 7, 4:00pm

Sat Dec 7, 3:10pm

Sat Dec 7, 3:00pm

Sat Dec 7, 2:10pm

Sat Dec 7, 2:01pm

Sat Dec 7, 1:10pm

Sat Dec 7, 1:00pm

Sat Dec 7, 12:10pm

Sat Dec 7, 12:01pm

Sat Dec 7, 11:10am

Sat Dec 7, 11:00am

Sat Dec 7, 10:10am

Sat Dec 7, 10:01am

Sat Dec 7, 9:10am

Sat Dec 7, 9:00am

Sat Dec 7, 8:10am

Sat Dec 7, 8:00am

Sat Dec 7, 7:10am

Sat Dec 7, 7:00am

Sat Dec 7, 6:10am

Sat Dec 7, 6:00am

Sat Dec 7, 5:10am

Sat Dec 7, 5:00am

Sat Dec 7, 4:10am

Sat Dec 7, 4:00am

Sat Dec 7, 3:10am

Sat Dec 7, 3:00am

Sat Dec 7, 2:10am

Sat Dec 7, 2:01am

Sat Dec 7, 1:10am

Sat Dec 7, 1:00am

Sat Dec 7, 12:10am

Sat Dec 7, 12:01am

Fri Dec 6, 11:10pm

Fri Dec 6, 11:00pm

Fri Dec 6, 10:10pm

Fri Dec 6, 10:00pm

Fri Dec 6, 9:10pm

Fri Dec 6, 9:00pm

Fri Dec 6, 8:10pm

Fri Dec 6, 8:00pm

Fri Dec 6, 7:10pm

Fri Dec 6, 7:01pm

Fri Dec 6, 6:10pm

Fri Dec 6, 6:00pm

Fri Dec 6, 5:10pm

Fri Dec 6, 5:00pm

Fri Dec 6, 4:10pm

Fri Dec 6, 4:00pm

Fri Dec 6, 3:10pm

Fri Dec 6, 3:00pm

Fri Dec 6, 2:10pm

Fri Dec 6, 2:00pm

Fri Dec 6, 1:10pm

Fri Dec 6, 1:00pm

Fri Dec 6, 12:10pm

Fri Dec 6, 12:00pm

Fri Dec 6, 11:10am

Fri Dec 6, 11:00am

Fri Dec 6, 10:10am

Fri Dec 6, 10:00am

Fri Dec 6, 9:10am

Fri Dec 6, 9:00am

Fri Dec 6, 8:10am

Fri Dec 6, 8:00am

Fri Dec 6, 7:10am

Fri Dec 6, 7:00am

Fri Dec 6, 6:10am

Fri Dec 6, 6:01am

Fri Dec 6, 5:10am

Fri Dec 6, 5:00am

Fri Dec 6, 4:10am

Fri Dec 6, 4:00am

Fri Dec 6, 3:00am

Fri Dec 6, 2:10am

Fri Dec 6, 2:00am

Fri Dec 6, 1:10am

Fri Dec 6, 1:00am

Fri Dec 6, 12:10am

Fri Dec 6, 12:00am

Thu Dec 5, 11:10pm

Thu Dec 5, 11:00pm

Thu Dec 5, 10:10pm

Thu Dec 5, 10:01pm

Thu Dec 5, 9:10pm

Thu Dec 5, 9:01pm

Thu Dec 5, 8:10pm

Thu Dec 5, 8:00pm

Thu Dec 5, 7:10pm

Thu Dec 5, 7:00pm

Thu Dec 5, 6:10pm

Thu Dec 5, 6:00pm

Thu Dec 5, 5:10pm

Thu Dec 5, 5:00pm

Thu Dec 5, 4:10pm

Meta data:

ID: 998af1c3-1495-4527-9ff7-7a6b2f4061c5
Link: https://api.weather.gov/products/998af1c3-1495-4527-9ff7-7a6b2f4061c5